TimeCST,TemperatureF,Dew PointF,Humidity,Sea Level PressureIn,VisibilityMPH,Wind Direction,Wind SpeedMPH,Gust SpeedMPH,PrecipitationIn,Events,Conditions,WindDirDegrees,DateUTC
12:53 AM,57.0,39.9,53,29.84,10.0,South,11.5,-,N/A,,Clear,170,2012-11-22 06:53:00
1:53 AM,57.0,41.0,55,29.82,10.0,South,13.8,19.6,N/A,,Clear,170,2012-11-22 07:53:00
2:53 AM,57.9,42.1,56,29.80,10.0,South,12.7,21.9,N/A,,Clear,190,2012-11-22 08:53:00
3:53 AM,59.0,44.1,58,29.78,10.0,South,13.8,24.2,N/A,,Clear,190,2012-11-22 09:53:00
4:53 AM,59.0,44.1,58,29.77,10.0,South,12.7,19.6,N/A,,Clear,190,2012-11-22 10:53:00
5:53 AM,59.0,44.1,58,29.78,10.0,South,15.0,21.9,N/A,,Clear,190,2012-11-22 11:53:00
6:53 AM,59.0,45.0,60,29.78,10.0,South,13.8,23.0,N/A,,Clear,190,2012-11-22 12:53:00
7:53 AM,60.1,46.0,60,29.78,10.0,South,15.0,21.9,N/A,,Clear,190,2012-11-22 13:53:00
8:53 AM,60.1,46.9,62,29.80,10.0,SSW,10.4,-,N/A,,Clear,200,2012-11-22 14:53:00
9:53 AM,63.0,48.9,60,29.81,10.0,SSW,9.2,-,N/A,,Clear,210,2012-11-22 15:53:00
10:53 AM,64.9,50.0,58,29.82,10.0,SW,11.5,-,N/A,,Clear,220,2012-11-22 16:53:00
11:53 AM,68.0,50.0,52,29.81,10.0,West,17.3,24.2,N/A,,Clear,270,2012-11-22 17:53:00
12:53 PM,71.1,48.9,45,29.81,10.0,West,16.1,-,N/A,,Clear,270,2012-11-22 18:53:00
1:53 PM,69.1,37.9,32,29.85,10.0,NW,19.6,23.0,N/A,,Clear,320,2012-11-22 19:53:00
2:53 PM,64.9,37.9,37,29.89,10.0,NNW,19.6,31.1,N/A,,Clear,330,2012-11-22 20:53:00
3:53 PM,61.0,37.9,42,29.96,10.0,NW,21.9,32.2,N/A,,Clear,320,2012-11-22 21:53:00
4:53 PM,57.0,37.9,49,30.03,10.0,NNW,13.8,26.5,N/A,,Clear,330,2012-11-22 22:53:00
5:53 PM,53.1,37.9,57,30.09,10.0,NNW,12.7,21.9,N/A,,Clear,340,2012-11-22 23:53:00
6:53 PM,50.0,37.0,61,30.15,10.0,NNW,9.2,-,N/A,,Clear,330,2012-11-23 00:53:00
7:53 PM,46.0,35.1,66,30.18,10.0,NW,5.8,-,N/A,,Clear,320,2012-11-23 01:53:00
8:53 PM,41.0,32.0,70,30.21,10.0,WNW,5.8,-,N/A,,Clear,300,2012-11-23 02:53:00
9:53 PM,39.0,30.9,73,30.23,10.0,WNW,5.8,-,N/A,,Clear,300,2012-11-23 03:53:00
10:53 PM,37.9,30.9,76,30.25,10.0,WNW,5.8,-,N/A,,Clear,300,2012-11-23 04:53:00
11:53 PM,37.0,30.0,76,30.26,10.0,WNW,6.9,-,N/A,,Clear,300,2012-11-23 05:53:00